Torna al catalogo

CZ-6A DEB

AttivoPO
NORAD 60864·DEBRIS·🇨🇳 China

Lanciato Aug 6, 2024 da Taiyuan Satellite Launch Center

Loading…

Prossimi Passaggi (prossime 24 ore)

TLE

AggiornatoSource: Space-Track

Epoca: Sep 14, 2026, 13:12 UTC

1 60864U 24140JT  26257.55011537  .00001166  00000-0  40164-3 0  9996
2 60864  89.4091 300.3494 0018637  60.7640 299.5419 14.35316467108309

Traccia CZ-6A DEB in tempo reale con AllMySat

Download on the App Store